TIMESTAMP,CO2_1_1_1,H2O_1_1_1,TAU_1_1_1,TAU_SSITC_TEST_1_1_1,H_1_1_1,H_SSITC_TEST_1_1_1,LE_1_1_1,LE_SSITC_TEST_1_1_1,FC_1_1_1,FC_SSITC_TEST_1_1_1,WD_0_0_1,WS_0_0_1,WS_MAX_0_0_1,U_SIGMA_0_0_1,V_SIGMA_0_0_1,W_SIGMA_0_0_1,USTAR_0_0_1,MO_LENGTH_0_0_1,ZL_0_0_1,FETCH_MAX_0_0_1,FETCH_70_0_0_1,FETCH_80_0_0_1,FETCH_90_0_0_1,PA_0_0_1,RH_0_0_1,TA_0_0_1,VPD_0_0_1,T_SONIC_0_0_1,T_SONIC_SIGMA_0_0_1
[yyyymmddHHMMSS],[mmolCO2 mol-1],[mmolH2O mol-1],[kg m-1 s-2],[#],[W m-2],[#],[W m-2],[#],[umolCO2 m-2 s-1],[#],[Decimal degrees],[m s-1],[m s-1],[m s-1],[m s-1],[m s-1],[m s-1],[m],[#],[m],[m],[m],[m],[kPa],[%],[deg C],[hPa],[deg C],[deg C]
20221013003000,425.64942540055620,7.2512904579450774,0.79085603673346272,0,-39.421845227246649,0,30.952369661733893,0,3.5510641681642734,0,253.45927156643501,3.7773503869141929,12.535646670050339,1.9970874987631506,1.4037106554090686,0.97370498030013819,0.83271603718114562,1205.5598630648399,1.5760312351223410E-002,110.48683417955299,202.00517084863804,241.74859666529213,302.64055609288351,92.266915943311162,62.927241379310345,7.9155172413792911,3.9427023827017083,8.4936914533464574,0.69436818434464842
20221013010000,424.91380716071643,7.9892972687158403,6.8830608831195295E-002,0,-15.922772999108041,0,1.0631682782077960,2,0.21320323107378494,2,239.63752249519158,1.8799850426139553,4.7084359620998502,0.60113192492754497,0.59342270827267263,0.28663358149889107,0.24496436255982423,76.016553119226160,0.24994556080699884,110.42707528628637,201.89591253262520,241.61784236598800,302.47686722602435,92.309001572527720,77.117333333333335,6.3693333333333157,2.1888890285494278,7.1170730834153346,0.22708946720582820
20221013013000,426.15131338500839,8.2225137844530263,4.3639590001212258E-002,0,-12.965965391521342,0,9.1795817937588460,0,0.70773445332224649,0,259.98911301758875,2.0906141633220634,4.3253111848929384,0.48006408803910572,0.39222936444910600,0.24770512507842993,0.19501914086049288,47.106314542547501,0.40334295273383708,157.47730460808384,1489.0000000000000,2749.0000000000000,7501.0000000000000,92.314340041449654,79.951999999999998,6.2640000000000100,1.9038467208167538,6.8875726021660739,0.18890960090497372
20221013020000,427.42365219158341,8.0897072323627572,0.22693711092313629,0,-53.165553681267383,0,37.438477271579636,0,2.3204171021131201,0,255.32445135821877,2.8520231057978562,6.6736895120786128,1.0395343741951770,0.79563680257260527,0.59836398624943077,0.44468344784071495,136.19176365069544,0.13950917067739271,98.746864372532528,180.54076177007741,216.06118108482718,270.48295996576178,92.310174137803813,78.920000000000002,6.2156666666666638,1.9951813849958171,6.8613483513726123,0.22273537120538606
20221013023000,427.97517006334306,7.8483634406919363,0.25882768203940820,0,-44.295587573676961,0,31.698251723382818,0,2.1676018676234206,0,260.15486136670273,3.2105216229539173,6.2641133199292147,1.0080668911284545,0.89089310984417269,0.59268930400410991,0.47475479616678717,198.90440449104739,9.5523274351901957E-002,104.85006804702971,191.69936460403389,229.41517873014297,287.20058037468993,92.306332539930565,77.406333333333336,6.0570000000000164,2.1151311579024776,6.6857986891005226,0.17698008500065410
20221013030000,428.68070960688459,7.6761446104779107,0.28885573258176656,0,-30.405584906407896,0,27.613769655839420,0,1.9638102176991528,0,270.14625828608575,3.0430235698815431,7.3289615584551324,1.1811876803251802,0.85741409904121768,0.65024493777748416,0.50129730402391437,341.12570159203284,5.5697943342665313E-002,101.68797785002400,185.91805522696467,222.49642797280907,278.53912543533966,92.306071630862093,77.036000000000001,5.8056666666666388,2.1127285902495578,6.3943958541702273,0.16959578576352299
20221013033000,429.67260024274674,7.7233549133358421,0.33708943200912916,0,-7.6365753736586459,2,22.412766179658696,1,3.4508404830086712,1,293.97169334783359,3.4080968027952601,8.7493906063788707,1.4605207262779969,1.4350532492762573,0.76136675581230662,0.54099196534725802,1707.2298842703565,1.1129139769082887E-002,95.264792090847806,174.17442308916333,208.44229966936007,260.94502452295495,92.317011880425341,80.437666666666672,5.2733333333333121,1.7344644437973511,5.8239347186618033,0.31846252904774852
20221013040000,427.62323479073905,7.6924960703856504,0.45578018669758191,0,-2.3113578076237058,2,32.626487002611164,1,4.4641632570972591,0,288.84753024409270,3.5274608792541122,9.1285521894525434,1.6246095306434576,1.1370777658094620,0.83265984984028996,0.62835791611554359,8838.5739579574274,2.1496680449105900E-003,99.964655423375063,182.76727220555259,218.72574541739104,273.81867832142564,92.321844355468755,83.593333333333334,4.6650000000000205,1.3942380975619211,5.2545148586697223,8.5836897764819189E-002
20221013043000,427.24286232210585,7.6061304099928568,0.28085834276853583,0,2.1671083009080769,2,0.96166772323314265,2,1.2417814858485285,1,285.08323588072142,2.7885353975509610,6.6917931735948759,1.1330782408026219,0.90233207137049853,0.65414783050680037,0.49296536439841393,-4551.8233437507288,-4.1741514477018106E-003,99.854421752867339,182.56572989863847,218.48455075063828,273.51673121985152,92.320971405164940,84.536666666666662,4.3433333333333621,1.2848091194622271,4.9428808127509001,0.16623620000197226
20221013050000,427.17243561644165,7.5331789988492579,0.26504016318141488,0,-9.6547883752982351,0,8.6316986564870231,0,2.4595698598614439,0,277.53823537313815,2.9492379448353172,7.8443207368486290,1.0673498070214007,0.83463498847383655,0.59772290598642641,0.47855064110766049,934.57941898275851,2.0330000440926164E-002,104.80869230542493,191.62371655226440,229.32464733295691,287.08724580825941,92.310970799479165,86.140000000000001,3.9370000000000118,1.1191967682284769,4.5417137489319543,0.12814477214003489
20221013053000,427.95702130608942,7.5670236941694933,0.17879857429415846,0,-5.0911710811116047,0,2.1516393685018396,0,1.6248851183594215,0,270.42932292439468,2.2429202411953999,4.8505740041396930,0.81150383237914525,0.69445934909218887,0.53611523041356901,0.39288115260213013,980.58997416014540,1.9376090415642991E-002,97.646648076988882,178.52921548583353,213.65387393867687,267.46929708023947,92.294823527343752,88.346666666666664,3.6390000000000100,0.92146515679987717,4.2836543477376381,6.7405919376950521E-002
20221013060000,428.87413036052271,7.7215416158730168,0.40120548459145361,0,-2.7987663209364819,2,8.5688600310071106,1,2.3122724542250346,0,257.32719759328103,2.6583010219176475,8.4227809512342962,1.2257343843413897,0.88086395725138489,0.64944166575371476,0.58892251206216795,6007.6750029818140,3.1626211455462639E-003,115.78953403304894,211.70019739020520,253.35106729121881,317.16547251729361,92.284028616970488,88.079999999999998,3.9673333333333289,0.96459718540039607,4.6076549708048447,9.7375391097733077E-002
20221013063000,427.28819253933824,7.2986825100910560,0.37003392284864095,0,11.832980439640179,1,28.531370751957564,0,4.7267361768498644,0,274.45100102700286,2.9721461127221218,9.6302604717782945,1.3395300509213635,0.95997963639072714,0.68909630527010479,0.56524363336903760,-1256.1052482954028,-1.5126121020339611E-002,106.86106698558999,195.37611203893755,233.81530635532482,292.70901802327916,92.268355740451398,85.223333333333329,3.6333333333333258,1.1679700137641136,4.2215431018406662,0.19153457791475123
20221013070000,426.68888816687621,7.1566398700675844,0.18376221514964741,0,-9.9461536228297316,0,14.245229313511675,0,2.6228340762819329,0,257.97770992913235,2.2955131344929303,7.4783912634688567,0.86858850044543601,0.78130551891512656,0.46684429443865311,0.39818091552355961,522.30590848624524,3.6377149274581411E-002,110.25076411819470,201.57355948579067,241.23206809904403,301.99392362145034,92.249759005859374,85.023333333333341,3.3853333333333353,1.1632362283061048,4.0184089787801440,9.7405382118114975E-002
20221013073000,426.99398720677715,7.2057412117644368,0.38564154021845248,0,-4.7482733024109640,1,5.3067867433885230,0,2.6780729733464628,0,239.14222789797915,2.6081758863393438,7.4384240177799228,1.0836725102739919,1.0584026928948360,0.67632037315416693,0.57697220666101257,3328.4320217169102,5.7083935847363956E-003,110.26986384400364,201.60847987611453,241.27385888746954,302.04624072948371,92.240154444010415,84.953333333333333,3.4923333333333630,1.1775382885442536,4.0988791690402877,7.4302438357426975E-002
20221013080000,427.32497141723485,7.2209904160225129,0.29258329883013440,0,-9.1783847209815921,0,-1.5138822993755028,1,0.99646456090800628,0,228.47091852442622,2.6345176322397266,7.2683729278282625,1.1764280675285004,0.88184489783548137,0.63388228760719489,0.50237191838382766,1136.4532364315924,1.6718681764380443E-002,103.96048351147046,190.07292035459579,227.46874036322311,284.76387051208530,92.219827584201383,86.750000000000000,3.2230000000000132,1.0173817633184625,3.8401433868408503,9.6659449327719485E-002
20221013083000,428.15592763563859,7.3440969301220109,0.41927673629664236,0,-21.973276950799249,0,3.1455953625159596,0,1.8733400159420524,0,231.05890428877825,2.7803562876601511,7.7141998043963556,1.2065475301253992,0.85329357667170569,0.64832418821597648,0.60151929027050488,814.70501366312408,2.3321324505628235E-002,117.92904114121356,215.61189874472419,258.03237475011179,323.02591395167627,92.188830793630544,88.076666666666668,3.2426666666666506,0.91679028353089276,3.8832700722269351,9.1101272739177383E-002
20221013090000,429.30580483307631,7.4007767371004620,0.34957518015934047,0,-4.9679618858975552,1,4.1208761989246820,0,1.2208560594135309,0,237.07704115645220,2.6495439720370544,6.8888884700914454,1.1370167023354401,0.94760627422004651,0.64785559749504618,0.54939399896893071,2744.8397642255773,6.9220798414659432E-003,109.74366416728169,200.64641904428751,240.12251778553758,300.60489829297018,92.156907473524313,88.450000000000003,3.2866666666666902,0.89085253818665144,3.9197684622870383,6.7253844579080652E-002
20221013093000,430.56017605833347,7.3872995257416463,0.26198779638938435,0,-13.487221555106400,0,1.3584053661706554,0,2.3240648497289573,0,227.94877191586340,2.2788279054820286,5.5263867237085540,0.99011034353914573,0.84804320772558972,0.59082804941623868,0.47549492899483153,655.39325764989610,2.8990228047401721E-002,105.24530412738463,192.42198221300524,230.27996744896913,288.28319323109781,92.140687345052086,89.436666666666667,3.1016666666666879,0.80415360857519769,3.7378551627265324,9.4147534594430940E-002
20221013100000,431.41547165757220,7.4148319536199940,0.19012985643824659,0,-11.960046698880928,0,2.5129022789442090,1,2.7497750603217805,0,220.85711341764363,2.2910926568238410,5.4506842976296639,0.84196986627392545,0.68906063212711810,0.48799339204068365,0.40500110868746758,456.63049752147816,4.1609134963891264E-002,107.86702886460093,197.21533118885532,236.01638193465104,295.46450345946567,92.123247855468762,90.709999999999994,2.9519999999999982,0.69975752911527478,3.6025716840956079,8.8211660281401344E-002
20221013103000,431.21033572584469,7.3729166910708077,0.31746052845442857,0,-5.7999339292681373,0,14.995144441156643,1,2.5469024529360995,0,234.17467223542639,2.6985463011590123,7.4433486212867255,1.2670430816614440,0.86829710277335592,0.65235781398241721,0.52346917443935959,2033.0414426889424,9.3456038824620367E-003,104.99753291758843,191.96897741892346,229.73783640949205,287.60450950128188,92.114056036024309,89.403333333333336,3.0753333333333330,0.80518796260546766,3.7106174672445036,6.0116534691065850E-002
20221013110000,431.89234075268854,7.3154825417274356,0.29577637388512557,0,-3.0736857829871385,1,7.1166174070005264,1,3.0409187002900566,1,244.72836624738147,2.0391774191090324,6.7684000233607140,1.0619844299250476,0.86366622568997853,0.61197101255481512,0.50522102156998161,3448.8432614076264,5.5090935017572396E-003,107.41262963438707,196.38454447282299,235.02214242144831,294.21983356968843,92.113240804737430,89.056666666666672,3.0196666666666943,0.82825623150299066,3.6501480437477767,5.1017721006074546E-002
20221013113000,431.16409920557339,7.1910295329266054,0.36948334950694312,0,-1.3923455288344719,2,18.701712639529731,0,4.6615555926205756,0,259.84485885600077,2.6059727248771853,7.5549778728003050,1.1761022866774382,0.85465179993038121,0.63352580490762789,0.56430025577651033,10608.646531381199,1.7909918992773043E-003,114.14362215192570,208.69094553484132,249.74976139399627,312.65706488047493,92.112876765407989,89.760000000000005,2.6670000000000300,0.75586634761052440,3.2607050365871828,0.16785548282616342
20221013120000,430.03722010200846,7.1289112417510454,0.34879831007152512,0,-12.605218008698341,0,10.108213184859389,0,2.6285122625808119,0,257.32120447759939,2.6513143295709858,6.2653459343434763,0.99705991025017038,0.75148912791627898,0.59521084176790218,0.54790623494300528,1072.6134184514167,1.7713744461104363E-002,117.18802288982181,214.25708104553038,256.41100398944542,320.99615015817557,92.114453855156427,91.306666666666672,2.3053333333333512,0.62539054699744845,2.9910746777091504,6.6767843087110729E-002
20221013123000,430.93355133573687,7.1986652046776767,0.18394624135318519,0,-6.5930594461611465,0,2.4965843894715536,0,1.2001873281684756,0,255.08273793884041,2.0999617978879201,5.2602276523101885,0.80753378227846540,0.61194108647634837,0.46861415020020658,0.39788030663737145,785.30836233969603,2.4194317686103139E-002,109.85113192074799,200.84290437270590,240.35766054060130,300.89926911925556,92.111532208820634,92.403333333333336,2.2740000000000009,0.54527789729891996,3.0289529180386694,5.2745376271061448E-002
20221013130000,431.38208980386241,7.1679637029360652,0.23350023894721142,0,-10.268030515589720,0,5.7193584691709072,0,1.9302196917075078,0,254.99458631038650,2.3353990088111694,5.7845522048325417,0.89488430226094406,0.70171105389439503,0.52915794768820723,0.44823501228711671,720.95807311559793,2.6353820989745064E-002,109.64561367717374,200.46715147677025,239.90798029279503,300.33632281000149,92.115224189453116,92.293333333333337,2.2313333333333389,0.55149291016198621,2.9947393544514966,5.3095648580546120E-002
20221013133000,431.72237885953604,7.1910144508101457,0.19053654128253519,0,-3.9868653294982677,0,7.6752507448347993,1,1.6381917808685043,1,257.25700932480407,1.8487689600262751,4.8681552216035513,0.85630836584598091,0.65619574599367037,0.48923127670950739,0.40492015273502752,1368.9588168321195,1.3879161130622998E-002,107.63141313487904,196.78455048914091,235.50084746001878,294.81911547277235,92.124723280598971,92.276666666666671,2.2803333333333171,0.55462024481200956,3.0374294382731364,4.1276120374453003E-002
20221013140000,432.48797601755842,7.2008904017607103,0.20336165923437352,0,2.2423006345305940,0,16.089885012516586,0,1.1622559327418573,0,263.44318394032263,2.2468741277627036,4.9044116626719143,0.83990082097317065,0.67884417238288397,0.47690378928829574,0.41837852582249824,-2684.8376280753669,-7.0767780521685409E-003,112.76278397552183,206.16633295262648,246.72844492813562,308.87473518767166,92.121415928602445,92.016666666666666,2.3386666666666542,0.57567987991570369,3.0304583375719290,3.3469304638156297E-002
20221013143000,433.41917675505476,7.1711040155812595,0.33678597068542304,0,0.22573437782136396,1,17.799644304755791,0,1.1926452826515255,0,267.33103238905005,2.3156945167279033,5.8693430379835343,1.1053239391057033,0.95793712257868735,0.57184082624842958,0.53836900590340242,-56826.586297847170,-3.3435054325478282E-004,119.31603495641596,218.14776579790308,261.06715994328437,326.82510489281674,92.123719692865478,91.836666666666673,2.3083333333333371,0.58738842586894069,2.9380195841084742,4.1445234113445389E-002
20221013150000,430.11978472153862,7.0710756900304288,0.41127860215041384,0,19.718601163840507,1,15.390249207394191,0,3.0704751362550464,1,273.95942590414933,3.1905752815727153,8.1807722032232721,1.3587404466647390,0.97681143375032953,0.65785666201804560,0.59462827452899381,-876.54731788420202,-2.1675954751492414E-002,115.49051632710282,211.15349765692977,252.69680733954826,316.34641669511228,92.128028904079869,92.273333333333326,2.0456666666666479,0.54564441221498328,2.6383845282661014,0.14856676685050588
20221013153000,427.51284641934160,6.8998820383042307,0.42887214371666010,0,13.137580199579219,1,15.607777552454378,1,0.91809046800608685,0,270.54305309587494,3.1620251789446816,8.4462737475281831,1.3030084371423170,0.97697649777130047,0.72339345668825716,0.60674024142510607,-1397.8915821019402,-1.3591898143796419E-002,108.78211013984536,198.88839161020596,238.01860795341378,297.97105284217400,92.151823118923616,92.280000000000001,1.7056666666666729,0.53207369857436904,2.3273825624254414,8.8650868614950695E-002
20221013160000,427.14544226984168,6.8994750447905790,0.32499741609291705,0,3.3459766192651736,2,5.4897278456625518,0,0.46559582880838823,0,268.75214429064494,2.8751479611681923,6.7779462529732664,1.1455563688632719,0.97112674491947493,0.72006460414038798,0.52787801164814219,-3615.0207167282470,-5.2558481648746500E-003,97.675262513081890,178.58153180111788,213.71648320629885,267.54767645381622,92.167898150183120,94.043333333333337,1.4433333333333280,0.40289093393530950,2.0485220467726322,0.15702113048006106
20221013163000,426.66833299390493,6.8113125377670451,0.45186856084005339,0,9.8773837651809124,0,3.3956794512448010,1,0.79994382356662830,1,276.05338363680431,3.7527757472857766,8.9563964729640233,1.3543029600879271,1.1077859553886542,0.77718908366999584,0.62204918683232613,-2004.0194268161306,-9.4809460156711628E-003,104.78360299694710,191.57784529454239,229.26975115314633,287.01852230535422,92.181219894748267,94.870000000000005,1.1446666666666943,0.33960822766716886,1.7334436128404604,0.10049570710591102
20221013170000,426.02510755057750,6.9230269467987533,0.39433489754161499,0,17.245581795077470,1,-2.0191449183035926,2,0.89310414312276243,1,270.53101704789492,2.8814199548594654,6.7832301172624927,1.2138913280901655,0.97471126821896803,0.68738288738885489,0.58120072926921063,-936.31019128699370,-2.0292420371804117E-002,109.48556085066484,200.17452386368112,239.55777977806255,299.89791332186127,92.193320471571184,95.616666666666674,1.2636666666666656,0.29267313319465416,2.2237270261975937,0.24684521499734646
20221013173000,425.83844338188874,6.9965983036356230,0.38160176585167954,0,92.902661796567131,0,18.305307415273408,0,0.49373220336709722,1,275.35236322368377,3.2074772371126792,7.9936497936725015,1.3057727720083820,0.90353278188750374,0.67752855102305121,0.57185995726816674,-165.58064019248982,-0.11474771433370612,109.33131430600993,199.89251198563969,239.22028358688564,299.47540813926275,92.206202242838543,95.640000000000001,1.4093333333333362,0.29417819326373090,3.0657181820340043,0.33265867975784147
20221013180000,424.90834395013502,7.1142723032651558,0.29337581487923992,0,37.790880420404974,0,10.898967528599309,0,5.7564467639507809E-002,1,278.76591136991351,3.1611864634071081,7.0750613494531205,1.1504352266061069,0.94403660554919455,0.70294088079420736,0.50169927506011358,-274.86852378486140,-6.9123956931755604E-002,95.603686174491131,174.79402955878768,209.18381036379995,261.87330792153375,92.206988050781248,95.163333333333327,1.7116666666666447,0.33349345201005576,2.6701051627264860,0.33850810865093606
20221013183000,424.36962453505231,7.2626769300693210,0.48768317653718979,0,29.022461504655691,0,22.095452866129989,0,-0.19767144685154264,0,273.82528639908816,2.7750307493353756,7.2661193177590278,1.2689051689227431,1.1094733436997575,0.76222517742237383,0.64745343999812965,-769.26564319632757,-2.4698880247731186E-002,109.88922282104353,200.91254668691570,240.44100460381520,301.00360599643307,92.203910420789938,93.783333333333331,2.2043333333333521,0.44401174851885006,2.4287222442627012,0.15075914646022534
20221013190000,423.49194318898884,7.0990752885396349,0.77521890571879415,0,55.037834538107589,0,49.714778854401253,1,-0.35228794954238057,1,281.08427173171839,3.1671326168980549,8.9624489261933551,1.5727907919994313,1.1881459371074914,0.94143262988060006,0.81675664028950845,-814.34200761252691,-2.3331720361207762E-002,111.76289468417872,204.33821642971802,244.54065635768907,306.13588350990864,92.208369412977433,89.506666666666661,2.5403333333333080,0.76762071955755806,3.0226107025146121,0.22461254280365087
20221013193000,422.70077901146544,6.9654852291842593,0.77250329291723452,0,75.097979353328924,0,59.399074791031595,0,-8.2182074054286930E-002,2,279.60185333321209,3.6982631326971047,9.3847967557036327,1.7153761894863169,1.2577178444342798,0.92367699070660425,0.81574258680068223,-594.61135691368133,-3.1953644643821014E-002,113.36560451484480,207.26848115825894,248.04743483769821,310.52595403740753,92.214192587890622,85.890000000000001,2.8543333333333294,1.0554800619730644,3.4150181766086121,0.15879874708889499
20221013200000,422.33916711611840,6.8622472943774051,0.64211127691331238,0,74.007588213832875,0,34.036885436194119,1,-1.6163115412617179,1,283.32051149502342,3.2072255275281187,9.1141013446786374,1.5225725083724155,1.2107752708355932,0.85838815413046776,0.74390853100488952,-457.67064074508784,-4.1514570323034045E-002,111.66666827782956,204.16228386907349,244.33011001640057,305.87230447495313,92.236408078863846,83.333333333333329,3.0733333333333235,1.2662376473248309,3.6296722300193096,0.17083098909460309
20221013203000,422.15288147315681,6.8204906049453511,0.66739233351932337,0,52.745242224207516,0,24.666465099670088,0,-0.15539455549364314,2,267.95328050798366,2.9976580935578157,9.3881919042931976,1.5319243706657135,1.1766081227933911,0.82464037273495439,0.75836567552871825,-680.51036446348519,-2.7920221340022665E-002,117.09710544790124,214.09085496506870,256.21207382586613,320.74711319928628,92.270288225694443,82.433333333333337,3.1456666666666706,1.3414684729417308,3.6729471638998348,0.22518704245681659
20221013210000,422.74543755114991,6.9226284219124778,0.49980713434571472,0,46.893520026401454,0,15.935370661146795,0,0.22392863605327326,0,264.85767130116568,3.4282119319981472,8.2641646060733116,1.4057106700031294,1.0860686060449005,0.78680039027297932,0.65520279489069311,-493.77970652137969,-3.8478697583286238E-002,108.15929293975532,197.74968313108346,236.65586473410775,296.26506004059598,92.310299886935766,88.583333333333329,2.3480000000000132,0.82380602684561499,2.9000045886569978,0.24043025597305029
20221013213000,422.49114349187408,6.8334695732806816,0.35344763094307791,0,20.416005797200434,0,0.83440306086646632,2,-6.8505318538410687E-002,2,271.50291203424024,3.6483368416335975,7.5823273118314329,1.2794941773084765,1.0467164611615456,0.76463912193279815,0.55067859650030282,-673.53131277832551,-2.8209527366477961E-002,96.295999605104143,176.05979931199207,210.69861347627977,263.76966166528206,92.346829414785205,88.636666666666670,2.1633333333333553,0.80923016773679257,2.7384355820671544,0.10506685204770826
20221013220000,423.10802552736772,6.8325257261546612,0.49235887578934651,0,12.920124576837042,0,9.2430661994659733,1,0.87819823056176338,1,268.69827800024291,3.2481625620769763,7.9890717461110947,1.3502065373958247,1.0699098202853885,0.79218528027090596,0.64938573480695916,-1745.8407227814541,-1.0883008828966603E-002,106.80600733022416,195.27544542855242,233.69483413330488,292.55820109706406,92.385947782335080,90.953333333333333,1.8063333333333276,0.62802024209884399,2.3948726916843270,8.6506064430573043E-002
20221013223000,423.48005723170826,6.9170742360145852,0.36322222730482917,0,-0.11792559562095460,2,5.5660771637932545,1,1.0728944492924326,0,272.59228948540522,3.1153586822763826,7.8486810146022785,1.1447715272588250,0.80751999741875125,0.64357429689704548,0.55754388037126312,121091.03292682352,1.5690674644324722E-004,111.63469489565301,204.10382632906754,244.26015127127749,305.78472442766576,92.420045507595489,92.916666666666671,1.6850000000000023,0.48747141305814012,2.2834968889024481,6.0780752504833425E-002